Notices

What's New in latest Release from April 7th, 2021:

- Updated Glossary, including Speed of Maximum Gust, and Total Hourly Precipitation

- Updated national and regional climate services offices contacts and prices information

- Addition of station inventory lists for 1981-2010, 1971-2000, and 1961-1990 Normals.

If you haven't already, please take our survey and provide feedback about our website: https://eccc.sondage-survey.ca/f/LanguageSelection.aspx?s=442ca660-fcf1-47c0-95a9-59707d6fd709

Hourly Data Report for April 16, 2021

TORONTO CITY
ONTARIO
Current Station Operator: ECCC - MSC

43°40'00.000" N
79°24'00.000" W
112.50 m
6158355
71508
XTO

Download Data

Hourly Data (April 2021)
Hourly Data Report for April 16, 2021
TIME
LST
Temp Definition
°C
Dew Point Definition
°C
Rel Hum Definition
%
Precip. Amount Definition
mm

Wind Dir Definition
10's deg

Wind Spd Definition
km/h
Visibility Definition
km
Stn Press Definition
kPa
Hmdx Definition


Wind Chill Definition


Weather Definition


00:00 6.1 2.8 79 0.0       99.29     LegendNANA
01:00 6.3 2.6 77 0.0       99.27     LegendNANA
02:00 6.3 2.1 74 0.0       99.27     LegendNANA
03:00 6.1 1.7 74 0.0       99.28     LegendNANA
04:00 5.9 1.1 71 0.0       99.25     LegendNANA
05:00 5.8 1.0 71 0.0       99.24     LegendNANA
06:00 5.6 1.0 72 0.0       99.25     LegendNANA
07:00 5.5 0.7 71 0.0       99.27     LegendNANA
08:00 5.6 0.8 71 0.0       99.29     LegendNANA
09:00 7.0 1.9 70 0.0       99.28     LegendNANA
10:00 6.8 0.6 65 0.0       99.33     LegendNANA
11:00 8.5 1.5 61 0.0       99.32     LegendNANA
12:00 8.8 1.6 60 0.0       99.29     LegendNANA
13:00 9.7 2.2 59 0.0       99.28     LegendNANA
14:00 9.7 1.8 58 0.0       99.33     LegendNANA
15:00 9.1 2.4 63 0.0       99.35     LegendNANA
16:00 7.9 2.5 69 0.0       99.39     LegendNANA
17:00 7.1 3.4 78 0.0       99.48     LegendNANA
18:00 6.6 3.3 80 0.2       99.54     LegendNANA
19:00 6.3 3.2 81 0.1       99.60     LegendNANA
20:00 6.1 4.0 86 0.1       99.66     LegendNANA
21:00 6.3 3.9 85 0.0       99.68     LegendNANA
22:00 6.3 3.9 84 0.0       99.70     LegendNANA
23:00 6.1 3.8 85 0.0       99.69     LegendNANA

Notes on Data Quality.

Legend

  • E = Estimated
  • M = Missing
  • NA = Not Available*
  • [empty] = Indicates an unobserved value
Date modified: